This is the latest recevied weather packets stored in our database for station/object WY1B. If no packets are shown the sender has not sent any weather packets the latest 10 day(s).
| Time | Temp. | Humidity | Pressure | Rain* | Wind** | Luminosity | Snow |
|---|---|---|---|---|---|---|---|
| 1787968042 | 40.56° C | 23% | 1001.8 hPa | 0 mm | - | 9 W/m² | - |
| 1787967741 | 41.11° C | 23% | 1001.8 hPa | 0 mm | - | 13 W/m² | - |
| 1787967439 | 41.11° C | 22% | 1001.7 hPa | 0 mm | - | 21 W/m² | - |
| 1787967134 | 41.67° C | 22% | 1001.6 hPa | 0 mm | - | 28 W/m² | - |
| 1787966830 | 41.67° C | 22% | 1001.8 hPa | 0 mm | - | 34 W/m² | - |
| 1787966527 | 41.67° C | 22% | 1001.9 hPa | 0 mm | - | 39 W/m² | - |
| 1787966226 | 42.22° C | 22% | 1001.6 hPa | 0 mm | - | 45 W/m² | - |
| 1787965921 | 42.22° C | 22% | 1001.8 hPa | 0 mm | - | 53 W/m² | - |
| 1787965615 | 42.22° C | 21% | 1001.6 hPa | 0 mm | - | 60 W/m² | - |
| 1787965315 | 42.78° C | 21% | 1001.7 hPa | 0 mm | - | 67 W/m² | - |
| 1787965014 | 42.78° C | 21% | 1001.6 hPa | 0 mm | - | 76 W/m² | - |
| 1787964714 | 42.78° C | 20% | 1001.9 hPa | 0 mm | - | 86 W/m² | - |
| 1787964409 | 43.33° C | 20% | 1001.7 hPa | 0 mm | - | 98 W/m² | - |
| 1787964104 | 43.33° C | 20% | 1001.7 hPa | 0 mm | - | 109 W/m² | - |
| 1787963803 | 43.33° C | 20% | 1001.6 hPa | 0 mm | - | 116 W/m² | - |
| 1787963498 | 43.89° C | 21% | 1001.7 hPa | 0 mm | - | 135 W/m² | - |
| 1787963194 | 43.89° C | 19% | 1001.5 hPa | 0 mm | - | 158 W/m² | - |
| 1787962892 | 43.89° C | 18% | 1001.7 hPa | 0 mm | - | 205 W/m² | - |
| 1787962592 | 43.89° C | 18% | 1001.7 hPa | 0 mm | - | 226 W/m² | - |
| 1787962292 | 43.89° C | 18% | 1001.5 hPa | 0 mm | - | 261 W/m² | - |
| 1787961986 | 43.33° C | 18% | 1001.6 hPa | 0 mm | - | 284 W/m² | - |
| 1787961681 | 43.33° C | 17% | 1001.5 hPa | 0 mm | - | 306 W/m² | - |
| 1787961375 | 43.33° C | 18% | 1001.7 hPa | 0 mm | - | 318 W/m² | - |
| 1787961074 | 43.33° C | 18% | 1001.6 hPa | 0 mm | - | 342 W/m² | - |
| 1787960773 | 43.89° C | 17% | 1001.7 hPa | 0 mm | - | 361 W/m² | - |
* Rain latest hour (hover to see other rain measurements)
** Current wind speed in m/s (hover to see current wind gust speed)